TimeCDT,TemperatureF,Dew PointF,Humidity,Sea Level PressureIn,VisibilityMPH,Wind Direction,Wind SpeedMPH,Gust SpeedMPH,PrecipitationIn,Events,Conditions,WindDirDegrees,DateUTC
12:53 AM,66.9,52.0,59,29.90,10.0,South,9.2,-,N/A,,Clear,180,2011-10-17 05:53:00
1:53 AM,66.9,53.1,61,29.90,10.0,South,8.1,-,N/A,,Clear,190,2011-10-17 06:53:00
2:53 AM,66.2,53.6,64,29.91,10.0,South,9.2,-,N/A,,Clear,180,2011-10-17 07:53:00
3:53 AM,66.9,54.0,63,29.86,10.0,South,12.7,-,N/A,,Clear,180,2011-10-17 08:53:00
4:53 AM,66.9,54.0,63,29.84,10.0,South,10.4,-,N/A,,Clear,180,2011-10-17 09:53:00
5:53 AM,66.0,54.0,65,29.86,10.0,South,10.4,-,N/A,,Clear,190,2011-10-17 10:53:00
6:53 AM,64.0,54.0,70,29.87,10.0,South,5.8,-,N/A,,Clear,190,2011-10-17 11:53:00
7:53 AM,63.0,55.0,75,29.87,10.0,South,3.5,-,N/A,,Clear,180,2011-10-17 12:53:00
8:53 AM,68.0,59.0,73,29.86,10.0,South,8.1,-,N/A,,Clear,190,2011-10-17 13:53:00
9:53 AM,75.0,61.0,62,29.85,10.0,SSW,15.0,-,N/A,,Clear,200,2011-10-17 14:53:00
10:53 AM,79.0,62.1,56,29.82,10.0,South,17.3,-,N/A,,Clear,190,2011-10-17 15:53:00
11:53 AM,82.0,62.1,51,29.80,10.0,South,16.1,-,N/A,,Clear,190,2011-10-17 16:53:00
12:53 PM,84.0,62.1,47,29.76,10.0,South,19.6,25.3,N/A,,Clear,190,2011-10-17 17:53:00
1:53 PM,86.0,62.1,44,29.72,10.0,South,18.4,-,N/A,,Clear,180,2011-10-17 18:53:00
2:53 PM,87.1,62.1,43,29.67,10.0,South,18.4,27.6,N/A,,Partly Cloudy,190,2011-10-17 19:53:00
3:53 PM,87.1,61.0,41,29.65,10.0,South,19.6,29.9,N/A,,Clear,180,2011-10-17 20:53:00
4:53 PM,88.0,61.0,40,29.62,10.0,South,19.6,27.6,N/A,,Clear,180,2011-10-17 21:53:00
5:53 PM,86.0,59.0,40,29.61,10.0,South,17.3,25.3,N/A,,Partly Cloudy,170,2011-10-17 22:53:00
6:53 PM,84.0,57.9,41,29.62,10.0,South,12.7,-,N/A,,Partly Cloudy,180,2011-10-17 23:53:00
7:53 PM,82.0,57.0,42,29.60,10.0,SSE,11.5,-,N/A,,Scattered Clouds,160,2011-10-18 00:53:00
8:49 PM,80.6,57.2,45,29.62,10.0,SSE,10.4,18.4,N/A,Thunderstorm,Thunderstorm,150,2011-10-18 01:49:00
8:53 PM,81.0,57.9,45,29.60,10.0,SSE,9.2,18.4,N/A,Thunderstorm,Thunderstorm,160,2011-10-18 01:53:00
9:15 PM,75.2,62.6,65,29.68,5.0,NNW,29.9,40.3,0.00,Rain-Thunderstorm,Thunderstorms and Rain,330,2011-10-18 02:15:00
9:27 PM,69.8,66.2,88,29.72,2.0,NNW,21.9,42.6,N/A,Rain-Thunderstorm,Heavy Thunderstorms and Rain,330,2011-10-18 02:27:00
9:36 PM,69.8,66.2,88,29.73,6.0,NW,11.5,19.6,0.18,Rain-Thunderstorm,Light Thunderstorms and Rain,310,2011-10-18 02:36:00
9:53 PM,70.0,66.9,90,29.71,10.0,NNW,10.4,-,0.18,Rain-Thunderstorm,Light Thunderstorms and Rain,330,2011-10-18 02:53:00
10:15 PM,69.8,64.4,83,29.75,10.0,NW,18.4,24.2,0.00,,Mostly Cloudy,320,2011-10-18 03:15:00
10:48 PM,66.2,59.0,78,29.77,10.0,North,17.3,23.0,0.00,Thunderstorm,Thunderstorm,350,2011-10-18 03:48:00
10:53 PM,66.0,59.0,78,29.78,10.0,NNW,19.6,25.3,0.00,Thunderstorm,Thunderstorm,330,2011-10-18 03:53:00
11:07 PM,62.6,57.2,82,29.76,2.5,North,21.9,31.1,0.04,Rain-Thunderstorm,Heavy Thunderstorms and Rain,10,2011-10-18 04:07:00
11:11 PM,62.6,57.2,82,29.78,4.0,North,11.5,31.1,0.11,Thunderstorm,Overcast,360,2011-10-18 04:11:00
11:53 PM,64.0,57.0,78,29.75,10.0,North,10.4,20.7,0.13,Thunderstorm,Thunderstorm,350,2011-10-18 04:53:00